Weather History for Kansas City, MO

Change the Weather History Date:

Sunday, April 6, 2014

  Actual Average Record
Temperature  
Mean Temperature 56 °F -  
Max Temperature 64 °F 61 °F 81 °F (2006)
Min Temperature 48 °F 41 °F 28 °F (2007)
Degree Days  
Heating Degree Days 9    
Growing Degree Days 6 (Base 50)    
Moisture  
Dew Point 32 °F    
Average Humidity 43    
Maximum Humidity 52    
Minimum Humidity 31    
Precipitation  
Precipitation 0.00 in - - ()
Sea Level Pressure  
Sea Level Pressure 29.93 in    
Wind  
Wind Speed 5 mph (SE)    
Max Wind Speed 12 mph    
Max Gust Speed -    
Visibility 10 miles    
Events      
Averages and records for this station are not official NWS values.
T = Trace of Precipitation, MM = Missing Value Source: NWS Daily Summary

Daily Weather History Graph

Daily Weather History Graph

Search for Another Location

Airport:

Trip Planner

Search our weather history database for the weather conditions in past years. The results will help you decide how hot, cold, wet, or windy it might be!

Date:

Astronomy

Apr. 06, 2014 Rise Set
Actual Time 6:55 AM CDT 7:47 PM CDT
Civil Twilight 6:27 AM CDT 8:14 PM CDT
Nautical Twilight 5:55 AM CDT 8:46 PM CDT
Astronomical Twilight 5:22 AM CDT 9:19 PM CDT
Moon 11:58 AM CDT (4/6) 1:42 AM CDT (4/6)
Length of Visible Light 13h 46m
Length of Day
12h 51m
Waxing Crescent, 44% of the Moon is Illuminated
Apr 6
Waxing Crescent
Apr 7
First Quarter
Apr 15
Full
Apr 22
Last Quarter
Apr 29
New

Hourly Weather History & Observations

Time (CDT) Temp. Dew Point Humidity Pressure Visibility Wind Dir Wind Speed Gust Speed Precip Events Conditions
12:54 AM 50.0 °F 30.0 °F 46% 30.04 in 10.0 mi ESE 8.1 mph - N/A   Mostly Cloudy
1:54 AM 51.1 °F 28.9 °F 43% 30.06 in 10.0 mi Variable 3.5 mph - N/A   Mostly Cloudy
2:54 AM 51.1 °F 28.9 °F 43% 30.05 in 10.0 mi South 3.5 mph - N/A   Overcast
3:54 AM 51.1 °F 28.0 °F 41% 30.04 in 10.0 mi South 6.9 mph - N/A   Overcast
4:54 AM 51.1 °F 28.0 °F 41% 30.02 in 10.0 mi Calm Calm - N/A   Overcast
5:54 AM 48.9 °F 30.9 °F 50% 30.00 in 10.0 mi East 5.8 mph - N/A   Overcast
6:54 AM 48.9 °F 30.9 °F 50% 29.98 in 10.0 mi East 5.8 mph - N/A   Overcast
7:54 AM 50.0 °F 32.0 °F 50% 29.99 in 10.0 mi East 3.5 mph - N/A   Overcast
8:54 AM 51.1 °F 32.0 °F 48% 29.99 in 10.0 mi South 5.8 mph - N/A   Mostly Cloudy
9:54 AM 52.0 °F 32.0 °F 47% 29.98 in 10.0 mi SSW 3.5 mph - N/A   Overcast
10:54 AM 54.0 °F 33.1 °F 45% 29.99 in 10.0 mi SSW 4.6 mph - N/A   Overcast
11:54 AM 57.9 °F 34.0 °F 41% 29.97 in 10.0 mi Calm Calm - N/A   Overcast
12:54 PM 59.0 °F 33.1 °F 38% 29.94 in 9.0 mi South 4.6 mph - N/A   Mostly Cloudy
1:54 PM 62.1 °F 33.1 °F 34% 29.90 in 9.0 mi Calm Calm - N/A   Partly Cloudy
2:54 PM 64.0 °F 33.1 °F 31% 29.88 in 10.0 mi East 4.6 mph - N/A   Scattered Clouds
3:54 PM 63.0 °F 32.0 °F 31% 29.86 in 10.0 mi ESE 9.2 mph - N/A   Overcast
4:54 PM 62.1 °F 33.1 °F 34% 29.84 in 10.0 mi SE 11.5 mph - N/A   Overcast
5:54 PM 61.0 °F 32.0 °F 34% 29.85 in 10.0 mi SSE 5.8 mph - N/A   Overcast
6:54 PM 59.0 °F 35.1 °F 41% 29.85 in 10.0 mi South 6.9 mph - N/A   Overcast
7:54 PM 57.0 °F 35.1 °F 44% 29.85 in 10.0 mi South 4.6 mph - N/A   Overcast
8:54 PM 57.9 °F 34.0 °F 41% 29.85 in 10.0 mi Calm Calm - N/A   Scattered Clouds
9:54 PM 55.0 °F 35.1 °F 47% 29.84 in 10.0 mi Calm Calm - N/A   Clear
10:54 PM 54.0 °F 36.0 °F 51% 29.83 in 10.0 mi ENE 4.6 mph - N/A   Clear
11:54 PM 53.1 °F 36.0 °F 52% 29.82 in 10.0 mi ENE 3.5 mph - N/A   Overcast